Weather History for Valdosta Regional, GA

Change the Weather History Date:

Friday, September 28, 2012

  Actual Average Record
Temperature  
Mean Temperature 79 °F 74 °F  
Max Temperature 92 °F 85 °F 93 °F (1999)
Min Temperature 65 °F 63 °F 52 °F (2006)
Degree Days  
Heating Degree Days 0 0  
Month to date heating degree days 0 0  
Since 1 July heating degree days 0 0  
Cooling Degree Days 14 9  
Month to date cooling degree days 407 352  
Year to date cooling degree days 2889 2206  
Growing Degree Days 28 (Base 50)    
Moisture  
Dew Point 65 °F    
Average Humidity 63    
Maximum Humidity 87    
Minimum Humidity 38    
Precipitation  
Precipitation 0.00 in 0.12 in 0.24 in (1948)
Month to date precipitation 4.67 4.41  
Year to date precipitation 38.19 41.44  
Sea Level Pressure  
Sea Level Pressure 30.08 in    
Wind  
Wind Speed 2 mph (East)    
Max Wind Speed 10 mph    
Max Gust Speed 15 mph    
Visibility 9 miles    
Events      
T = Trace of Precipitation, MM = Missing Value Source: NWS Daily Summary

Daily Weather History Graph

Daily Weather History Graph

Search for Another Location

Airport:

Trip Planner

Search our weather history database for the weather conditions in past years. The results will help you decide how hot, cold, wet, or windy it might be!

Date:

Astronomy

Sep. 28, 2012 Rise Set
Actual Time 7:25 AM EDT 7:21 PM EDT
Civil Twilight 7:01 AM EDT 7:45 PM EDT
Nautical Twilight 6:33 AM EDT 8:13 PM EDT
Astronomical Twilight 6:05 AM EDT 8:41 PM EDT
Moon 6:22 PM EDT (9/28) 5:57 AM EDT (9/28)
Length of Visible Light 12h 44m
Length of Day
11h 56m
Waxing Gibbous, 98% of the Moon is Illuminated
Sep 28
Waxing Gibbous
Sep 29
Full
Oct 8
Last Quarter
Oct 15
New
Oct 21
First Quarter

Hourly Weather History & Observations

Time (EDT) Temp. Heat Index Dew Point Humidity Pressure Visibility Wind Dir Wind Speed Gust Speed Precip Events Conditions
12:53 AM 70.0 °F - 64.9 °F 84% 30.13 in 9.0 mi Calm Calm - N/A   Clear
1:53 AM 69.1 °F - 64.9 °F 87% 30.14 in 7.0 mi Calm Calm - N/A   Clear
2:53 AM 68.0 °F - 63.0 °F 84% 30.12 in 7.0 mi Calm Calm - N/A   Clear
3:53 AM 68.0 °F - 64.9 °F 90% 30.10 in 8.0 mi Calm Calm - N/A   Clear
4:53 AM 68.0 °F - 64.0 °F 87% 30.09 in 7.0 mi Calm Calm - N/A   Clear
5:53 AM 66.9 °F - 63.0 °F 87% 30.09 in 6.0 mi Calm Calm - N/A   Clear
6:53 AM 66.0 °F - 62.1 °F 87% 30.11 in 5.0 mi Calm Calm - N/A   Clear
7:53 AM 68.0 °F - 64.0 °F 87% 30.11 in 6.0 mi Calm Calm - N/A   Clear
8:53 AM 73.9 °F - 68.0 °F 82% 30.13 in 10.0 mi Calm Calm - N/A   Clear
9:53 AM 79.0 °F - 70.0 °F 74% 30.14 in 10.0 mi ENE 3.5 mph - N/A   Clear
12:53 PM 89.1 °F 90.3 °F 64.0 °F 43% 30.11 in 10.0 mi ENE 5.8 mph - N/A   Clear
1:53 PM 90.0 °F 91.3 °F 64.0 °F 42% 30.08 in 10.0 mi Variable 4.6 mph - N/A   Partly Cloudy
2:53 PM 91.9 °F 93.3 °F 64.0 °F 39% 30.05 in 10.0 mi Variable 3.5 mph - N/A   Scattered Clouds
3:53 PM 91.9 °F 93.3 °F 64.0 °F 39% 30.03 in 10.0 mi ESE 4.6 mph - N/A   Scattered Clouds
4:53 PM 91.0 °F 91.9 °F 63.0 °F 39% 30.01 in 10.0 mi NE 8.1 mph - N/A   Mostly Cloudy
5:53 PM 89.1 °F 90.3 °F 64.0 °F 43% 30.01 in 10.0 mi ENE 5.8 mph - N/A   Mostly Cloudy
6:53 PM 84.9 °F 87.1 °F 66.0 °F 53% 30.02 in 10.0 mi Calm Calm - N/A   Mostly Cloudy
7:53 PM 81.0 °F 83.8 °F 68.0 °F 65% 30.02 in 10.0 mi Calm Calm - N/A   Mostly Cloudy
8:53 PM 77.0 °F - 66.0 °F 69% 30.03 in 10.0 mi Calm Calm - N/A   Clear
9:53 PM 73.0 °F - 66.9 °F 81% 30.05 in 10.0 mi Calm Calm - N/A   Clear
10:53 PM 77.0 °F - 66.9 °F 71% 30.06 in 10.0 mi SSE 4.6 mph - N/A   Clear
11:53 PM 75.9 °F - 66.9 °F 74% 30.06 in 10.0 mi SE 4.6 mph - N/A   Clear